[[{"header":{"parameterUnit":"m.s-1","parameterCategory":1,"la1":30.2991,"la2":30.254,"lo1":-89.0895,"lo2":-89.0444,"dy":0.0017,"dx":0.0017,"nx":28,"ny":28,"refTime":"2023-07-24T03:00:00:Z","depth":0,"parameterNumber":2,"parameterNumberName":"U-component_of_WINDS"},"data":[0,0,0,0,0,0,0,0,0,0,0,0,0,0,0,0,0,0,0,0,0,0,0,0,0,0,0,0,0,0,0,0,0,0,0,0,0,0,0,0,0,0,0,0,0,0,0,0,0,0,0,0,0,0,0,0,0,0,0.3445,0.3446,0,0.3513,0.3514,0.3515,0.3558,0.3558,0.3558,0.3559,0.3627,0.3629,0.363,0,0,0,0,0,0,0,0,0,0,0,0,0,0.335,0.3352,0.3445,0.3446,0.3446,0.3513,0.3514,0.3515,0.3558,0.3558,0.3558,0.3559,0.3626,0.3628,0.363,0,0,0,0,0,0,0,0,0,0,0,0,0,0.3402,0.3352,0.3445,0.3476,0.348,0.3513,0.3514,0.3515,0.3558,0.3558,0.3559,0.3559,0.3626,0.3628,0.3631,0.3637,0,0,0.3638,0.3639,0,0,0,0,0,0,0,0,0.3399,0.3405,0.3471,0.3474,0.3478,0.3527,0.3506,0.3556,0.3558,0.3528,0.3559,0.3559,0.3593,0.3598,0.361,0.3641,0.3644,0.3638,0.3639,0.364,0.3641,0,0,0,0,0,0,0,0.3395,0.3403,0.3472,0.3471,0.3476,0.3486,0.3494,0.3515,0.3558,0.3531,0.3534,0.3541,0.3596,0.3608,0.3612,0.3645,0.3638,0.364,0.3641,0.3642,0.3683,0.3683,0,0,0,0,0,0,0.3387,0.3399,0.347,0.3474,0.3439,0.3487,0.3496,0.3511,0.3558,0.3565,0.3541,0.3543,0.3604,0.3609,0.3615,0.3626,0.364,0.3643,0.3644,0.3684,0.3683,0.3683,0,0,0,0,0,0,0.3385,0.3393,0.3467,0.3438,0.3448,0.3489,0.3505,0.3512,0.3525,0.3566,0.3573,0.3546,0.3604,0.3612,0.3631,0.3629,0.3644,0.3646,0.3684,0.3684,0.3683,0.3647,0,0,0,0,0,0,0.3382,0.3392,0.3395,0.3437,0.3449,0.3483,0.3505,0.3513,0.3529,0.3532,0.3572,0.3579,0.3605,0.3628,0.3634,0.3632,0.3648,0.3685,0.3684,0.3683,0.3649,0.3646,0.3643,0,0,0,0,0,0.3378,0.3382,0.3395,0.3403,0.3454,0.3482,0.3489,0.3519,0.3529,0.3532,0.3558,0.3578,0.3628,0.3629,0.3637,0.3636,0.3685,0.3684,0.3683,0.365,0.3646,0.3643,0,0,0,0,0,0,0.3338,0.3388,0.3403,0.3421,0.3447,0.349,0.3495,0.3514,0.3538,0.354,0.3576,0.3585,0.3601,0.362,0.3621,0.3645,0.3659,0.3659,0.3631,0.3628,0.3625,0.3619,0.365,0,0,0,0,0,0.3331,0.335,0.3393,0.3404,0.3417,0.3453,0.3467,0.3488,0.3516,0.3527,0.3555,0.3581,0.3603,0.3617,0.3639,0.3652,0.3661,0.3655,0.3652,0.3649,0.3649,0.3657,0.3655,0.368,0.368,0.3681,0,0,0.3317,0.3347,0.3357,0.3397,0.342,0.3438,0.3462,0.3481,0.3495,0.353,0.355,0.3572,0.3603,0.362,0.3629,0.3637,0.3644,0.3648,0.3646,0.3647,0.3656,0.3653,0.3651,0.368,0.368,0.368,0,0,0.3301,0.3326,0.3338,0.336,0.3395,0.3419,0.3422,0.3462,0.3477,0.3498,0.3525,0.3542,0.3579,0.36,0.3616,0.3608,0.3626,0.3614,0.3598,0.3605,0.3603,0.3601,0.3598,0.3596,0.3614,0.3614,0.3614,0,0.3279,0.3308,0.3341,0.3358,0.3375,0.3408,0.342,0.344,0.348,0.349,0.3499,0.3546,0.357,0.3591,0.3589,0.3601,0.3605,0.3609,0.3601,0.3599,0.3598,0.3595,0.3594,0.3612,0.3612,0.3612,0.3612,0,0.3279,0.3299,0.3305,0.3342,0.336,0.3374,0.3409,0.3422,0.3442,0.3465,0.3486,0.3516,0.3544,0.3551,0.357,0.3575,0.3579,0.3594,0.3609,0.3593,0.3591,0.359,0.3609,0.361,0.361,0.3611,0,0,0.3239,0.3295,0.3297,0.3314,0.3354,0.337,0.3386,0.3414,0.3425,0.3451,0.3464,0.3495,0.3508,0.3526,0.3548,0.3555,0.3545,0.3568,0.357,0.3562,0.3552,0.354,0.3538,0.3559,0.3558,0.3558,0.3549,0,0.3228,0.3259,0.3289,0.3308,0.3326,0.3358,0.3372,0.3398,0.342,0.3438,0.3463,0.3483,0.35,0.3511,0.3519,0.3545,0.3544,0.3546,0.3571,0.3571,0.3561,0.3537,0.3525,0.3515,0.3549,0.3549,0.3548,0,0.322,0.3245,0.3266,0.3304,0.3313,0.3325,0.3353,0.3371,0.34,0.3416,0.3436,0.3459,0.3477,0.349,0.3514,0.3515,0.3527,0.3541,0.3542,0.3544,0.3558,0.3539,0.3512,0.351,0.3547,0.3548,0.3548,0,0.3187,0.3226,0.3244,0.3258,0.3303,0.3311,0.333,0.336,0.3375,0.34,0.341,0.3436,0.345,0.347,0.3499,0.3507,0.352,0.3536,0.3533,0.3532,0.3534,0.3533,0.3508,0.3543,0.3543,0.3543,0.3543,0,0.3171,0.3183,0.323,0.324,0.3254,0.3289,0.3301,0.3323,0.335,0.3365,0.3394,0.3407,0.3446,0.3464,0.3487,0.3503,0.351,0.3522,0.3528,0.3519,0.3517,0.3527,0.3528,0.3542,0.3543,0.3543,0.3543,0,0.3137,0.3169,0.319,0.3232,0.3242,0.325,0.3286,0.3297,0.3321,0.334,0.3346,0.3383,0.3406,0.3438,0.347,0.3486,0.3498,0.3508,0.3488,0.3491,0.3486,0.3486,0.3466,0.3464,0.35,0.35,0.3499,0,0.3124,0.3134,0.3177,0.3189,0.3207,0.3227,0.3243,0.3277,0.3292,0.3327,0.3334,0.3359,0.338,0.3415,0.3444,0.3469,0.3479,0.3471,0.3483,0.3474,0.3478,0.3477,0.3478,0.3467,0.3467,0.3466,0.3466,0,0.3098,0.3114,0.3135,0.3162,0.318,0.3203,0.3228,0.3236,0.3275,0.3291,0.3314,0.3331,0.3364,0.3388,0.3417,0.3436,0.3457,0.3462,0.3462,0.3453,0.344,0.3446,0.3479,0.3462,0.3462,0.3463,0.3463,0.3463,0.3074,0.3084,0.3115,0.3138,0.316,0.3182,0.3195,0.322,0.3241,0.3271,0.329,0.3312,0.3342,0.3383,0.3401,0.3419,0.3427,0.3428,0.3428,0.3427,0.3424,0.3438,0.3424,0.3424,0.3424,0.3425,0.3425,0,0.3048,0.307,0.3091,0.3124,0.3142,0.3162,0.3189,0.3203,0.3222,0.3248,0.3269,0.3296,0.332,0.3352,0.3377,0.3385,0.3396,0.3391,0.339,0.3394,0.3415,0.3412,0.3382,0.3382,0.3382,0.3382,0.3382,0.3382,0.3037,0.3055,0.3074,0.3102,0.3124,0.3147,0.3161,0.3181,0.3202,0.3231,0.3251,0.3271,0.33,0.3328,0.335,0.3359,0.3366,0.3359,0.337,0.3389,0.3393,0.3396,0.3393,0.336,0.336,0.3347,0.3347,0.3347]},{"header":{"parameterUnit":"m.s-1","parameterCategory":1,"la1":30.2991,"la2":30.254,"lo1":-89.0895,"lo2":-89.0444,"dy":0.0017,"dx":0.0017,"nx":28,"ny":28,"refTime":"2023-07-24T03:00:00:Z","depth":0,"parameterNumber":3,"parameterNumberName":"V-component_of_WINDS"},"data":[0,0,0,0,0,0,0,0,0,0,0,0,0,0,0,0,0,0,0,0,0,0,0,0,0,0,0,0,0,0,0,0,0,0,0,0,0,0,0,0,0,0,0,0,0,0,0,0,0,0,0,0,0,0,0,0,0,0,2.9919,2.9919,0,2.9904,2.9904,2.9904,2.9853,2.9852,2.9851,2.985,2.9834,2.9835,2.9835,0,0,0,0,0,0,0,0,0,0,0,0,0,2.9903,2.9904,2.9919,2.9919,2.9919,2.9904,2.9904,2.9904,2.9853,2.9852,2.985,2.9849,2.9834,2.9834,2.9835,0,0,0,0,0,0,0,0,0,0,0,0,0,2.9901,2.9904,2.9919,2.9892,2.9889,2.9904,2.9904,2.9904,2.9853,2.9852,2.985,2.9848,2.9833,2.9834,2.9835,2.9876,0,0,2.9838,2.9839,0,0,0,0,0,0,0,0,2.9902,2.9902,2.9896,2.9894,2.9891,2.9879,2.9893,2.9894,2.9854,2.9867,2.985,2.9848,2.985,2.985,2.9851,2.9875,2.9874,2.9838,2.9839,2.9839,2.984,0,0,0,0,0,0,0,2.9902,2.9902,2.9913,2.9896,2.9893,2.988,2.9878,2.9893,2.9868,2.9866,2.9862,2.9861,2.9848,2.985,2.985,2.9874,2.9838,2.9839,2.984,2.984,2.9928,2.993,0,0,0,0,0,0,2.9906,2.9903,2.9914,2.9913,2.9892,2.9882,2.9879,2.9884,2.9868,2.9864,2.9862,2.9859,2.9849,2.9849,2.9849,2.9893,2.9839,2.984,2.9841,2.9927,2.9929,2.9931,0,0,0,0,0,0,2.9906,2.9907,2.9914,2.9907,2.9907,2.9884,2.989,2.9885,2.9886,2.9866,2.9861,2.9868,2.9848,2.9848,2.9869,2.9892,2.9841,2.9842,2.9925,2.9927,2.993,2.9984,0,0,0,0,0,0,2.9906,2.9908,2.9923,2.9908,2.9907,2.9935,2.9891,2.9886,2.9888,2.9883,2.987,2.9866,2.9846,2.9868,2.987,2.9893,2.9842,2.9922,2.9926,2.9929,2.998,2.9988,2.9995,0,0,0,0,0,2.9905,2.9939,2.9924,2.9926,2.9926,2.9937,2.9936,2.9913,2.989,2.9905,2.9892,2.9866,2.989,2.987,2.9872,2.9896,2.9921,2.9925,2.9929,2.9977,2.9987,2.9995,0,0,0,0,0,0,2.9959,2.9937,2.992,2.995,2.9946,2.9928,2.9946,2.9925,2.9926,2.9922,2.9892,2.989,2.9915,2.9908,2.9886,2.9933,2.9901,2.9906,2.9937,2.9946,2.9953,2.9954,2.9843,0,0,0,0,0,2.9974,2.9984,2.9965,2.9993,2.9992,2.997,2.9973,2.9955,2.995,2.9947,2.9935,2.9931,2.9936,2.9941,2.9946,2.9979,2.9974,2.9996,3.0004,3.001,3.0014,3.0029,3.0038,2.9944,2.9944,2.9944,0,0,3.0006,2.9995,3.0003,3.0004,2.9998,3.0009,2.9968,2.9982,2.9989,2.9949,2.9968,2.9959,2.9952,2.9979,2.999,2.9974,3.0039,3.0015,3.002,3.0021,3.0034,3.0043,3.0051,2.9946,2.9946,2.9946,0,0,3.0068,3.0062,3.0084,3.0079,3.0071,3.0056,3.0061,3.0047,3.0039,3.0058,3.0027,3.0036,3.0047,3.0042,3.0042,3.0102,3.0078,3.0104,3.0143,3.0158,3.0166,3.0172,3.0192,3.02,3.0108,3.0108,3.0108,0,3.0109,3.0124,3.0098,3.0113,3.0114,3.0078,3.01,3.0096,3.009,3.0091,3.0072,3.0085,3.0077,3.0102,3.0116,3.0118,3.0122,3.0105,3.0167,3.0173,3.0179,3.0197,3.0205,3.0111,3.0111,3.0111,3.011,0,3.0173,3.0184,3.0203,3.0197,3.02,3.0218,3.0195,3.0201,3.0183,3.0169,3.0187,3.0177,3.0178,3.0183,3.0166,3.0205,3.0194,3.0172,3.0139,3.0191,3.0208,3.0215,3.0116,3.0115,3.0114,3.0113,0,0,3.0269,3.0248,3.0255,3.0251,3.0239,3.0247,3.0264,3.0264,3.0269,3.0266,3.0278,3.0288,3.0266,3.0266,3.0247,3.0261,3.0307,3.0237,3.0236,3.0249,3.0347,3.0363,3.0372,3.0292,3.0293,3.0294,3.0347,0,3.0327,3.0353,3.0331,3.0361,3.037,3.0336,3.035,3.0344,3.0331,3.0337,3.0323,3.033,3.0302,3.0301,3.0313,3.0299,3.0326,3.0295,3.0302,3.0302,3.0303,3.0381,3.0398,3.0449,3.0354,3.0355,3.0356,0,3.0398,3.0398,3.0429,3.0413,3.0416,3.0429,3.0427,3.0433,3.0425,3.0415,3.0414,3.0391,3.0405,3.0374,3.0392,3.0371,3.0373,3.0366,3.0367,3.0366,3.0331,3.038,3.0465,3.0472,3.0366,3.0365,3.0365,0,3.0463,3.047,3.0489,3.0487,3.047,3.048,3.0473,3.0463,3.0465,3.0463,3.0463,3.0464,3.0463,3.0464,3.0442,3.0421,3.0462,3.0429,3.0453,3.0454,3.0462,3.0462,3.0547,3.0466,3.0466,3.0466,3.0465,0,3.0529,3.055,3.0518,3.0529,3.055,3.0524,3.0545,3.0535,3.0526,3.0535,3.0506,3.0514,3.0485,3.0491,3.0474,3.049,3.0491,3.0482,3.0477,3.0484,3.0485,3.0484,3.0479,3.0468,3.0467,3.0467,3.0466,0,3.0605,3.0584,3.0603,3.0585,3.0581,3.0597,3.0581,3.0591,3.0576,3.0587,3.0588,3.0566,3.057,3.0549,3.055,3.0538,3.0563,3.0553,3.0565,3.0562,3.0586,3.0583,3.0672,3.0681,3.0596,3.0597,3.0598,0,3.0648,3.0662,3.0646,3.0649,3.0644,3.065,3.0651,3.0625,3.0627,3.0618,3.0629,3.0631,3.0631,3.064,3.0623,3.0623,3.0612,3.0643,3.0612,3.0618,3.061,3.0609,3.061,3.0649,3.065,3.0651,3.0652,0,3.0726,3.0715,3.0717,3.0716,3.0718,3.0716,3.0712,3.0716,3.0688,3.0692,3.0696,3.0696,3.0697,3.0699,3.0695,3.0688,3.0665,3.0662,3.0667,3.0673,3.0679,3.0675,3.0581,3.066,3.0659,3.0658,3.0658,3.0657,3.0785,3.0796,3.0785,3.0788,3.0782,3.0779,3.0787,3.0773,3.0776,3.0774,3.0759,3.0765,3.0756,3.0749,3.0743,3.0748,3.0733,3.0741,3.0743,3.0745,3.0748,3.068,3.0747,3.0747,3.0747,3.0746,3.0746,0,3.086,3.0851,3.0855,3.0849,3.0852,3.083,3.0824,3.0828,3.0834,3.0827,3.0827,3.0831,3.0833,3.0816,3.0815,3.0822,3.0811,3.0822,3.0821,3.0819,3.0762,3.0757,3.0831,3.0831,3.0831,3.0831,3.0831,3.0831,3.0899,3.0915,3.0903,3.0915,3.0906,3.0912,3.0911,3.0907,3.0901,3.0906,3.0907,3.0897,3.0885,3.0883,3.0883,3.0878,3.0878,3.0893,3.0884,3.0831,3.0823,3.0815,3.081,3.0894,3.0894,3.094,3.0941,3.0941]}]]